Location: Houhaj�rvi
(61.2833°N, 23.0000°E)
Time: 04:09:36
(UTC+00:00)

USA 229 - Pass Details

Date: 27 February 2020
Orbit: 986 x 1226 km, 63.4° (Epoch: 26 March)

Event Time Altitude Azimuth Distance (km) Brightness Sun altitude
Rises 21:02:43 0° 288° (WNW) 3,846 7.2 -34.0°
Reaches altitude 10° 21:05:17 10° 289° (WNW) 2,922 6.5 -34.1°
Enters shadow 21:11:13 67° 300° (WNW) 1,205 3.9 -34.5°
